Location: Tamazert
(32.6352°N, 5.2072°W)
Time: 21:54:24
(UTC+00:00)

Spot 4 Rocket - Pass Details

Date: 22 May 2022
Orbit: 775 x 781 km, 98.8° (Epoch: 24 June)

Event Time Altitude Azimuth Distance (km) Brightness Sun altitude
Rises 04:31:46 0° 11° (NNE) 3,260 8.0 -9.4°
Reaches altitude 10° 04:34:05 10° 11° (N) 2,329 7.2 -9.0°
Maximum altitude 04:39:13 83° 285° (WNW) 785 4.0 -8.1°
Drops below altitude 10° 04:44:19 10° 197° (SSW) 2,312 6.1 -7.1°
Sets 04:46:37 0° 196° (SSW) 3,236 6.8 -6.7°
